Location: Unspecified
(35.6961°N, 0.0000°E)
Time: 10:47:42
(UTC+00:00)

Hubble Space Telescope - Pass Details

Date: 29 April 2019
Orbit: 537 x 540 km, 28.5° (Epoch: 23 May)

Event Time Altitude Azimuth Distance (km) Brightness Sun altitude
Exits shadow 03:53:44 25° 213° (SSW) 1,117 1.9 -15.1°
Maximum altitude 03:55:02 30° 180° (S) 980 1.8 -14.8°
Drops below altitude 10° 03:58:40 10° 118° (ESE) 1,786 3.9 -14.2°
Sets 04:01:07 0° 108° (ESE) 2,677 5.0 -13.8°
